CW3816 Weather Reports


time (UTC)temp
C
wind
direction
speed
KPH
gust
KPH
rain 1hr
cm
rain 24hr
cm
rain mn
cm
humidity
%
barometer
mb
20260504160408 24 328 0.0 0.0 0.00 0.00 0.00 25 1013.2
20260504150353 22 127 0.0 0.0 0.00 0.00 0.00 29 1013.7
20260504140354 18 186 0.0 0.0 0.00 0.00 0.00 36 1013.7
20260504130347 13 232 0.0 0.0 0.00 0.00 0.00 53 1014.3
20260504110344 8 116 0.0 0.0 0.00 0.00 0.00 68 1014.7
20260504100356 9 116 0.0 0.0 0.00 0.00 0.00 65 1014.4
20260504081904 9 116 0.0 0.0 0.00 0.00 0.00 65 1014.9
20260504080344 9 116 0.0 0.0 0.00 0.00 0.00 61 1014.8
20260504070349 10 116 0.0 0.0 0.00 0.00 0.00 60 1014.8
20260504050354 7 116 0.0 0.0 0.00 0.00 0.00 73 1015.0
20260504044911 7 116 0.0 0.0 0.00 0.00 0.00 72 1014.8
20260504043350 7 116 0.0 0.0 0.00 0.00 0.00 72 1014.8
20260504041905 7 116 0.0 0.0 0.00 0.00 0.00 74 1014.6
20260504040348 7 116 0.0 0.0 0.00 0.00 0.00 73 1014.8
20260504034843 7 116 0.0 0.0 0.00 0.00 0.00 73 1014.8
20260504033343 6 116 0.0 0.0 0.00 0.00 0.00 73 1014.7
20260504031905 6 116 0.0 0.0 0.00 0.00 0.00 72 1014.7
20260504030344 7 116 0.0 0.0 0.00 0.00 0.00 71 1014.9
20260504024859 7 116 0.0 0.0 0.00 0.00 0.00 70 1014.7
20260504023342 7 116 0.0 0.0 0.00 0.00 0.00 70 1014.8
20260504021846 8 116 0.0 0.0 0.00 0.00 0.00 69 1014.7
20260504020352 8 116 0.0 0.0 0.00 0.00 0.00 68 1014.6
20260504014849 8 116 0.0 0.0 0.00 0.00 0.00 67 1014.4
20260504013357 9 116 0.0 0.0 0.00 0.00 0.00 64 1014.5
20260504011857 10 116 0.0 0.0 0.00 0.00 0.00 64 1014.3
20260504010341 10 116 0.0 0.0 0.00 0.00 0.00 60 1014.3
20260504004903 11 116 0.0 0.0 0.00 0.00 0.00 60 1014.2
20260504003344 12 116 0.0 0.0 0.00 0.00 0.00 57 1014.0
20260504001904 12 116 0.0 0.0 0.00 0.00 0.00 51 1013.9
20260504000343 14 116 0.0 0.0 0.00 0.00 0.00 46 1013.9
20260503234905 15 116 0.0 0.0 0.00 0.00 0.00 38 1013.7
20260503233347 15 116 0.0 0.0 0.00 0.00 0.00 32 1013.5
20260503231847 16 116 0.0 0.0 0.00 0.00 0.00 27 1013.5
20260503230354 16 116 0.0 0.0 0.00 0.00 0.00 26 1013.5
20260503224852 16 116 0.0 0.0 0.00 0.00 0.00 24 1013.5
20260503223355 17 113 0.0 0.0 0.00 0.00 0.00 25 1013.6
20260503221855 17 165 0.0 0.0 0.00 0.00 0.00 27 1013.7
20260503220358 17 165 0.0 0.0 0.00 0.00 0.00 27 1013.7
20260503214838 17 182 0.0 0.0 0.00 0.00 0.00 23 1013.8
20260503213345 18 188 0.0 0.0 0.00 0.00 0.00 24 1013.8
20260503211841 18 213 0.0 0.0 0.00 0.00 0.00 25 1013.8
20260503210341 19 128 0.0 0.0 0.00 0.00 0.00 22 1013.8
20260503204840 20 151 0.0 0.0 0.00 0.00 0.00 22 1013.9
20260503203344 20 323 0.0 0.0 0.00 0.00 0.00 23 1014.3
20260503201840 21 275 0.0 0.0 0.00 0.00 0.00 22 1014.4
20260503200339 21 272 0.0 0.0 0.00 0.00 0.00 22 1014.4
20260503194840 20 55 0.0 0.0 0.00 0.00 0.00 23 1014.8
20260503193339 20 227 0.0 0.0 0.00 0.00 0.00 21 1014.9
20260503191859 20 66 0.0 0.0 0.00 0.00 0.00 24 1015.3
20260503190345 21 75 0.0 0.0 0.00 0.00 0.00 21 1015.5
20260503184841 20 131 0.0 0.0 0.00 0.00 0.00 24 1015.7
20260503183347 20 275 0.0 0.0 0.00 0.00 0.00 23 1015.9
20260503181844 20 45 0.0 0.0 0.00 0.00 0.00 25 1015.9
20260503180348 19 64 0.0 0.0 0.00 0.00 0.00 23 1016.0
20260503174849 18 176 0.0 0.0 0.00 0.00 0.00 25 1016.1
20260503173352 18 188 0.0 0.0 0.00 0.00 0.00 28 1016.3
20260503171836 18 64 0.0 0.0 0.00 0.00 0.00 28 1016.4
20260503170343 18 234 0.0 0.0 0.00 0.00 0.00 25 1016.4